Back to catalog

STARLINK-36476

AliveCommunicationsVLEO
NORAD 67314·PAYLOAD·🇺🇸 United States

Launched Jan 4, 2026 from Cape Canaveral Space Force Station

Loading…

Next Passes (next 24 hours)

TLE

FreshSource: CelesTrak SupGP

Epoch: Sep 14, 2026, 15:51 UTC

1 67314C 26002K   26257.66090278  .00034938  00000+0  12657-2 0  2577
2 67314  43.0035 338.1119 0001597 274.3947 279.9602 15.27554039    19

Track STARLINK-36476 in real time with AllMySat

Download on the App Store